Location: Knowlton
(51.2333°N, 1.2667°E)
Time: 10:14:16
(UTC+00:00)

USA 245 - Pass Details

Date: 18 April 2021
Orbit: 268 x 984 km, 97.9° (Epoch: 02 May)

Event Time Altitude Azimuth Distance (km) Brightness Sun altitude
Exits shadow 20:24:20 21° 132° (SE) 1,254 4.5 -12.9°
Maximum altitude 20:26:31 42° 72° (ENE) 717 3.6 -13.2°
Drops below altitude 10° 20:29:38 10° 360° (N) 1,536 6.1 -13.6°
Sets 20:31:29 0° 353° (N) 2,307 7.2 -13.8°
